| time (UTC) | temp C | wind direction | speed KPH | gust KPH | rain 1hr cm | rain 24hr cm | rain mn cm | humidity % | barometer mb |
| 20260510120050 | 11 | 136 | 0.0 | 3.2 | 0.00 | 0.66 | 0.13 | 95 | 1011.0 |
| 20260510114531 | 11 | 132 | 0.0 | 1.6 | 0.00 | 0.66 | 0.13 | 95 | 1010.9 |
| 20260510113031 | 11 | 131 | 0.0 | 3.2 | 0.00 | 0.66 | 0.13 | 95 | 1010.8 |
| 20260510111515 | 11 | 247 | 0.0 | 8.0 | 0.03 | 0.66 | 0.13 | 96 | 1010.9 |
| 20260510110013 | 11 | 223 | 0.0 | 4.8 | 0.03 | 0.66 | 0.13 | 96 | 1010.4 |
| 20260510104610 | 11 | 224 | 0.0 | 0.0 | 0.03 | 0.66 | 0.13 | 96 | 1010.5 |
| 20260510103051 | 11 | 144 | 0.0 | 0.0 | 0.03 | 0.66 | 0.13 | 96 | 1010.1 |
| 20260510101534 | 11 | 268 | 0.0 | 1.6 | 0.00 | 0.64 | 0.10 | 96 | 1009.8 |
| 20260510100032 | 11 | 251 | 0.0 | 3.2 | 0.00 | 0.64 | 0.10 | 96 | 1009.6 |
| 20260510094525 | 11 | 270 | 0.0 | 1.6 | 0.00 | 0.64 | 0.10 | 96 | 1009.4 |
| 20260510093014 | 11 | 117 | 0.0 | 0.0 | 0.00 | 0.64 | 0.10 | 96 | 1009.3 |
| 20260510091556 | 10 | 117 | 0.0 | 3.2 | 0.00 | 0.64 | 0.10 | 96 | 1009.1 |
| 20260510090055 | 10 | 112 | 0.0 | 1.6 | 0.00 | 0.64 | 0.10 | 95 | 1008.9 |
| 20260510084537 | 11 | 107 | 0.0 | 0.0 | 0.03 | 0.64 | 0.10 | 95 | 1009.0 |
| 20260510083035 | 11 | 107 | 0.0 | 0.0 | 0.03 | 0.64 | 0.10 | 95 | 1009.2 |
| 20260510081525 | 11 | 192 | 0.0 | 0.0 | 0.03 | 0.64 | 0.10 | 95 | 1009.2 |
| 20260510080021 | 11 | 220 | 0.0 | 1.6 | 0.03 | 0.64 | 0.10 | 95 | 1009.1 |
| 20260510074522 | 11 | 96 | 0.0 | 1.6 | 0.03 | 0.61 | 0.08 | 95 | 1008.7 |
| 20260510073021 | 11 | 125 | 0.0 | 3.2 | 0.03 | 0.61 | 0.08 | 95 | 1009.0 |
| 20260510071519 | 11 | 169 | 0.0 | 3.2 | 0.03 | 0.61 | 0.08 | 95 | 1009.2 |
| 20260510070018 | 11 | 193 | 0.0 | 0.0 | 0.03 | 0.61 | 0.08 | 95 | 1009.8 |
| 20260510064517 | 11 | 172 | 0.0 | 0.0 | 0.00 | 0.58 | 0.05 | 95 | 1009.8 |
| 20260510063016 | 11 | 169 | 0.0 | 1.6 | 0.00 | 0.58 | 0.05 | 94 | 1009.8 |
| 20260510061557 | 11 | 181 | 0.0 | 0.0 | 0.03 | 0.58 | 0.05 | 94 | 1009.7 |
| 20260510060100 | 11 | 153 | 0.0 | 3.2 | 0.03 | 0.58 | 0.05 | 94 | 1009.6 |
| 20260510054538 | 11 | 258 | 0.0 | 9.7 | 0.03 | 0.58 | 0.05 | 94 | 1009.5 |
| 20260510053036 | 11 | 248 | 0.0 | 1.6 | 0.05 | 0.58 | 0.05 | 94 | 1009.4 |
| 20260510051519 | 11 | 250 | 0.0 | 4.8 | 0.03 | 0.56 | 0.03 | 94 | 1009.0 |
| 20260510050018 | 11 | 149 | 0.0 | 3.2 | 0.03 | 0.56 | 0.03 | 94 | 1008.9 |
| 20260510044559 | 11 | 122 | 0.0 | 4.8 | 0.05 | 0.56 | 0.03 | 93 | 1009.1 |
| 20260510044501 | 11 | 122 | 0.0 | 4.8 | 0.05 | 0.56 | 0.03 | 93 | 1009.0 |
| 20260510043144 | 11 | 198 | 0.0 | 0.0 | 0.03 | 0.53 | 0.00 | 93 | 1009.3 |
| 20260510041541 | 11 | 136 | 0.0 | 3.2 | 0.03 | 0.53 | 0.53 | 93 | 1009.5 |
| 20260510040039 | 11 | 138 | 0.0 | 4.8 | 0.05 | 0.53 | 0.53 | 94 | 1009.2 |
| 20260510034520 | 11 | 96 | 0.0 | 3.2 | 0.03 | 0.51 | 0.51 | 94 | 1009.0 |
| 20260510033020 | 11 | 92 | 0.0 | 1.6 | 0.03 | 0.51 | 0.51 | 94 | 1009.0 |
| 20260510031503 | 11 | 88 | 0.0 | 1.6 | 0.03 | 0.51 | 0.51 | 94 | 1009.2 |
| 20260510030001 | 11 | 132 | 0.0 | 3.2 | 0.03 | 0.48 | 0.48 | 94 | 1009.2 |
| 20260510024546 | 11 | 110 | 0.0 | 3.2 | 0.03 | 0.48 | 0.48 | 95 | 1009.3 |
| 20260510023053 | 11 | 107 | 0.0 | 1.6 | 0.03 | 0.48 | 0.48 | 95 | 1009.5 |
| 20260510021526 | 11 | 107 | 0.0 | 4.8 | 0.03 | 0.48 | 0.48 | 95 | 1009.5 |
| 20260510020025 | 11 | 109 | 0.0 | 3.2 | 0.03 | 0.46 | 0.46 | 95 | 1009.1 |
| 20260510014507 | 11 | 130 | 0.0 | 3.2 | 0.03 | 0.46 | 0.46 | 95 | 1009.3 |
| 20260510013012 | 11 | 118 | 0.0 | 1.6 | 0.03 | 0.46 | 0.46 | 96 | 1009.3 |
| 20260510011607 | 11 | 112 | 0.0 | 4.8 | 0.03 | 0.46 | 0.46 | 96 | 1009.5 |
| 20260510010103 | 11 | 118 | 0.0 | 6.4 | 0.00 | 0.43 | 0.43 | 96 | 1009.3 |
| 20260510004528 | 11 | 86 | 0.0 | 0.0 | 0.03 | 0.43 | 0.43 | 96 | 1009.2 |
| 20260510003028 | 11 | 84 | 0.0 | 0.0 | 0.03 | 0.43 | 0.43 | 96 | 1009.0 |
| 20260510001510 | 11 | 5 | 0.0 | 0.0 | 0.03 | 0.43 | 0.43 | 96 | 1008.8 |
| 20260510000009 | 11 | 5 | 0.0 | 0.0 | 0.05 | 0.43 | 0.43 | 96 | 1008.5 |
| 20260509234556 | 11 | 5 | 0.0 | 0.0 | 0.03 | 0.41 | 0.41 | 97 | 1008.6 |
| 20260509233053 | 11 | 5 | 0.0 | 0.0 | 0.03 | 0.41 | 0.41 | 97 | 1008.5 |
| 20260509231533 | 12 | 5 | 0.0 | 6.4 | 0.03 | 0.41 | 0.41 | 97 | 1008.3 |
| 20260509230033 | 12 | 213 | 0.0 | 1.6 | 0.03 | 0.38 | 0.38 | 97 | 1008.3 |
| 20260509224517 | 12 | 5 | 0.0 | 1.6 | 0.03 | 0.38 | 0.38 | 97 | 1008.3 |
| 20260509223015 | 12 | 30 | 0.0 | 0.0 | 0.05 | 0.38 | 0.38 | 98 | 1008.3 |
| 20260509221555 | 11 | 30 | 0.0 | 0.0 | 0.03 | 0.36 | 0.36 | 98 | 1008.4 |
| 20260509220053 | 11 | 30 | 0.0 | 0.0 | 0.03 | 0.36 | 0.36 | 98 | 1008.5 |
| 20260509214534 | 11 | 30 | 0.0 | 0.0 | 0.05 | 0.36 | 0.36 | 97 | 1008.7 |
| 20260509213035 | 11 | 30 | 0.0 | 0.0 | 0.05 | 0.33 | 0.33 | 97 | 1008.8 |
| 20260509211527 | 11 | 30 | 0.0 | 0.0 | 0.05 | 0.33 | 0.33 | 97 | 1008.8 |
| 20260509210013 | 11 | 30 | 0.0 | 0.0 | 0.05 | 0.30 | 0.30 | 97 | 1008.9 |
| 20260509204611 | 10 | 30 | 0.0 | 0.0 | 0.05 | 0.30 | 0.30 | 97 | 1009.2 |
| 20260509203058 | 10 | 30 | 0.0 | 0.0 | 0.05 | 0.28 | 0.28 | 97 | 1009.4 |
| 20260509201550 | 10 | 28 | 0.0 | 0.0 | 0.05 | 0.28 | 0.28 | 97 | 1009.6 |
| 20260509200032 | 10 | 28 | 0.0 | 0.0 | 0.05 | 0.25 | 0.25 | 97 | 1009.6 |
| 20260509194531 | 10 | 19 | 0.0 | 0.0 | 0.05 | 0.25 | 0.25 | 97 | 1009.9 |
| 20260509193012 | 10 | 325 | 0.0 | 1.6 | 0.05 | 0.23 | 0.23 | 97 | 1010.0 |
| 20260509191512 | 10 | 269 | 0.0 | 3.2 | 0.05 | 0.23 | 0.23 | 97 | 1010.1 |
| 20260509190054 | 10 | 71 | 0.0 | 0.0 | 0.05 | 0.20 | 0.20 | 97 | 1010.1 |
| 20260509184549 | 10 | 71 | 0.0 | 0.0 | 0.05 | 0.20 | 0.20 | 97 | 1010.2 |
| 20260509183036 | 10 | 71 | 0.0 | 0.0 | 0.05 | 0.18 | 0.18 | 97 | 1010.3 |
| 20260509181529 | 9 | 348 | 0.0 | 0.0 | 0.05 | 0.18 | 0.18 | 96 | 1010.5 |
| 20260509180006 | 9 | 344 | 0.0 | 0.0 | 0.03 | 0.15 | 0.15 | 96 | 1010.6 |
| 20260509174507 | 9 | 342 | 0.0 | 3.2 | 0.03 | 0.15 | 0.15 | 96 | 1010.7 |
| 20260509173047 | 9 | 38 | 0.0 | 1.6 | 0.03 | 0.13 | 0.13 | 96 | 1010.9 |
| 20260509171547 | 9 | 300 | 0.0 | 3.2 | 0.03 | 0.13 | 0.13 | 96 | 1010.9 |
| 20260509170025 | 9 | 294 | 0.0 | 0.0 | 0.03 | 0.13 | 0.13 | 96 | 1011.0 |
| 20260509164526 | 9 | 294 | 0.0 | 0.0 | 0.05 | 0.13 | 0.13 | 97 | 1011.1 |
| 20260509163004 | 8 | 290 | 0.0 | 0.0 | 0.03 | 0.10 | 0.10 | 96 | 1011.2 |
| 20260509161503 | 8 | 290 | 0.0 | 0.0 | 0.03 | 0.10 | 0.10 | 96 | 1011.5 |
| 20260509160043 | 8 | 277 | 0.0 | 0.0 | 0.03 | 0.10 | 0.10 | 96 | 1011.7 |
| 20260509154540 | 8 | 277 | 0.0 | 0.0 | 0.03 | 0.08 | 0.08 | 97 | 1012.0 |
| 20260509153023 | 7 | 277 | 0.0 | 1.6 | 0.03 | 0.08 | 0.08 | 96 | 1012.3 |
| 20260509151519 | 7 | 275 | 0.0 | 0.0 | 0.05 | 0.08 | 0.08 | 95 | 1012.3 |
| 20260509150057 | 7 | 275 | 0.0 | 0.0 | 0.05 | 0.08 | 0.08 | 95 | 1012.5 |
| 20260509144554 | 6 | 275 | 0.0 | 0.0 | 0.03 | 0.05 | 0.05 | 94 | 1012.6 |
| 20260509143036 | 6 | 275 | 0.0 | 0.0 | 0.03 | 0.05 | 0.05 | 94 | 1012.4 |
| 20260509141536 | 6 | 275 | 0.0 | 0.0 | 0.00 | 0.03 | 0.03 | 93 | 1012.5 |
| 20260509140019 | 6 | 275 | 0.0 | 0.0 | 0.03 | 0.03 | 0.03 | 93 | 1012.4 |
| 20260509134517 | 6 | 275 | 0.0 | 0.0 | 0.03 | 0.03 | 0.03 | 93 | 1012.4 |
| 20260509133106 | 6 | 275 | 0.0 | 0.0 | 0.03 | 0.03 | 0.03 | 92 | 1012.3 |
| 20260509131600 | 6 | 275 | 0.0 | 0.0 | 0.03 | 0.03 | 0.03 | 93 | 1012.5 |
| 20260509130024 | 6 | 275 | 0.0 | 0.0 | 0.00 | 0.00 | 0.00 | 93 | 1012.5 |
| 20260509124538 | 6 | 275 | 0.0 | 0.0 | 0.00 | 0.00 | 0.00 | 92 | 1012.6 |
| 20260509123018 | 6 | 275 | 0.0 | 0.0 | 0.00 | 0.00 | 0.00 | 91 | 1012.7 |
| 20260509121518 | 5 | 275 | 0.0 | 0.0 | 0.00 | 0.00 | 0.00 | 90 | 1012.8 |